Corpus Christi, TX

8:28 AM CST on December 17, 2017 (GMT -0600)
Corpus Christi International

Weather History for KCRP - November, 2012

Change the Weather History Date:

Friday, November 30, 2012

  Actual Average Record
Temperature  
Mean Temperature 75 °F 62 °F  
Max Temperature 85 °F 72 °F 85 °F (2012)
Min Temperature 65 °F 52 °F 29 °F (1911)
Degree Days  
Heating Degree Days 0 6  
Month to date heating degree days 30 92  
Since 1 July heating degree days 39 101  
Cooling Degree Days 10 2  
Month to date cooling degree days 168 124  
Year to date cooling degree days 4371 3475  
Growing Degree Days 24 (Base 50)    
Moisture  
Dew Point 65 °F    
Average Humidity 71    
Maximum Humidity 87    
Minimum Humidity 55    
Precipitation  
Precipitation T in 0.05 in 0.83 in (1968)
Month to date precipitation 0.59 1.97  
Year to date precipitation 18.79 29.93  
Snow  
Snow 0.00 in - - ()
Month to date snowfall 0.0  
Since 1 July snowfall 0.0  
Since 1 September snowfall 0.0  
Snow Depth 0.00 in    
Sea Level Pressure  
Sea Level Pressure 30.10 in    
Wind  
Wind Speed 9 mph (SE)    
Max Wind Speed 21 mph    
Max Gust Speed 25 mph    
Visibility 10 miles    
Events Rain    
T = Trace of Precipitation, MM = Missing Value Source: NWS Daily Summary

Daily Weather History Graph

Daily Weather History Graph

Search for Another Location

Airport or City:

Trip Planner

Search our weather history database for the weather conditions in past years. The results will help you decide how hot, cold, wet, or windy it might be!

Date:

Astronomy

Nov. 30, 2012 Rise Set
Actual Time 7:03 AM CST 5:34 PM CST
Civil Twilight 6:37 AM CST 5:59 PM CST
Nautical Twilight 6:08 AM CST 6:28 PM CST
Astronomical Twilight 5:40 AM CST 6:57 PM CST
Moon 7:29 PM CST (11/30) 8:36 AM CST (11/30)
Length of Visible Light 11h 21m
Length of Day
10h 31m
Waning Gibbous, 96% of the Moon is Illuminated
Nov 30
Waning Gibbous
Dec 6
Last Quarter
Dec 13
New
Dec 19
First Quarter
Dec 28
Full

Hourly Weather History & Observations

Time (CST) Temp. Heat Index Dew Point Humidity Pressure Visibility Wind Dir Wind Speed Gust Speed Precip Events Conditions
12:51 AM 66.0 °F - 62.1 °F 87% 30.13 in 10.0 mi NNE 4.6 mph - N/A   Mostly Cloudy
1:51 AM 66.9 °F - 62.1 °F 84% 30.13 in 10.0 mi North 3.5 mph - N/A   Overcast
2:51 AM 66.9 °F - 62.1 °F 84% 30.12 in 10.0 mi NNE 3.5 mph - N/A   Mostly Cloudy
3:51 AM 66.0 °F - 62.1 °F 87% 30.11 in 10.0 mi NE 4.6 mph - N/A   Mostly Cloudy
4:51 AM 66.0 °F - 62.1 °F 87% 30.11 in 10.0 mi Calm Calm - N/A   Mostly Cloudy
5:51 AM 66.9 °F - 63.0 °F 87% 30.11 in 10.0 mi Calm Calm - N/A   Mostly Cloudy
6:51 AM 66.0 °F - 62.1 °F 87% 30.12 in 10.0 mi East 5.8 mph - N/A   Scattered Clouds
7:51 AM 66.9 °F - 63.0 °F 87% 30.13 in 10.0 mi East 3.5 mph - N/A   Partly Cloudy
8:51 AM 73.0 °F - 66.0 °F 79% 30.15 in 10.0 mi Calm Calm - N/A   Partly Cloudy
9:51 AM 77.0 °F - 66.0 °F 69% 30.15 in 10.0 mi SE 8.1 mph - N/A   Mostly Cloudy
10:51 AM 81.0 °F 83.3 °F 66.9 °F 62% 30.15 in 10.0 mi SSE 12.7 mph - 0.00 in Rain Light Rain
11:51 AM 82.9 °F 85.0 °F 66.0 °F 56% 30.13 in 10.0 mi SSE 5.8 mph 17.3 mph 0.00 in   Mostly Cloudy
12:51 PM 82.9 °F 85.0 °F 66.0 °F 56% 30.09 in 10.0 mi SSE 15.0 mph 19.6 mph N/A   Mostly Cloudy
1:51 PM 82.0 °F 84.1 °F 66.0 °F 58% 30.07 in 10.0 mi SE 11.5 mph - N/A   Mostly Cloudy
2:51 PM 84.0 °F 86.3 °F 66.0 °F 55% 30.06 in 10.0 mi SSE 15.0 mph - N/A   Mostly Cloudy
3:51 PM 82.9 °F 85.0 °F 66.0 °F 56% 30.06 in 10.0 mi SSE 16.1 mph - N/A   Scattered Clouds
4:51 PM 80.1 °F 82.1 °F 66.0 °F 62% 30.06 in 10.0 mi SE 17.3 mph - N/A   Scattered Clouds
5:51 PM 77.0 °F - 68.0 °F 74% 30.06 in 10.0 mi SSE 15.0 mph - N/A   Partly Cloudy
6:51 PM 75.0 °F - 68.0 °F 79% 30.07 in 10.0 mi SE 12.7 mph - N/A   Partly Cloudy
7:51 PM 73.9 °F - 66.9 °F 79% 30.08 in 10.0 mi SSE 9.2 mph - N/A   Partly Cloudy
8:51 PM 73.0 °F - 66.9 °F 81% 30.09 in 10.0 mi SSE 9.2 mph - N/A   Partly Cloudy
9:51 PM 73.0 °F - 68.0 °F 84% 30.10 in 10.0 mi SSE 10.4 mph - N/A   Overcast
10:51 PM 73.0 °F - 68.0 °F 84% 30.10 in 10.0 mi SSE 11.5 mph - N/A   Partly Cloudy
11:51 PM 72.0 °F - 68.0 °F 87% 30.09 in 10.0 mi SSE 9.2 mph - N/A   Scattered Clouds